Flag for West Bank Weather past 2 weeks in Hebron, West Bank

Now
79 °F

Clear.


Feels Like: 82 °F
Forecast: 64 / 83 °F
Wind: 5 mph from South

Location: Ben Gurion International Airport

Current Time: Jul 30, 2014 at 12:18:26 AM

Latest Report: Jul 29, 2014 at 11:50 PM


Visibility: 10 mi

Pressure: 29.77 "Hg

Humidity: 79%

Dew point: 72 °F

Location of HebronLocation

Historic Weather in Hebron — Graph

°F

Hebron temperature yesterday

Maximum temperature yesterday: 90 °F (at 11:50 AM)
Minimum temperature yesterday: 77 °F (at 2:50 AM)
Average temperature yesterday: 83 °F

Past Weeks' High & Low Weather Summary

 TemperatureHumidityPressure
High90 °F (Jul 23, 12:20 PM)89% (Jul 24, 3:20 AM)29.92 "Hg (Jul 24, 3:20 AM)
Low72 °F (Jul 26, 5:50 AM)46% (Jul 16, 11:20 AM)29.71 "Hg (Jul 25, 3:20 PM)
Average81 °F66%29.80 "Hg
* Reported Jul 14 11:20 PM — Jul 29 11:20 PM, Hebron, Weather by CustomWeather, © 2014

Note: Actual official high and low records may vary slightly from our data, if they occured in-between our weather recording intervals... More about our weather records

Advertising

Hebron weather history for previous 24 hours

 ConditionsComfort  
Time TempWeatherWind HumidityBarometerVisibility
11:20 PM
Jul 29
79 °FClear.5 mph79%29.77 "Hg10 mi
10:50 PM79 °FClear.5 mph79%29.77 "Hg10 mi
10:20 PM81 °FPassing clouds.3 mph74%29.77 "HgN/A
9:50 PM81 °FPassing clouds.2 mph74%29.77 "HgN/A
9:20 PM81 °FPassing clouds.3 mph74%29.77 "HgN/A
8:50 PM81 °FPassing clouds.3 mph74%29.77 "HgN/A
8:20 PM81 °FPassing clouds.6 mph74%29.77 "HgN/A
7:50 PM82 °FSunny.7 mph70%29.77 "Hg10 mi
7:20 PM82 °FPassing clouds.9 mph70%29.77 "HgN/A
6:50 PM84 °FPassing clouds.10 mph70%29.77 "HgN/A
6:20 PM86 °FPassing clouds.10 mph66%29.77 "HgN/A
5:50 PM88 °FPassing clouds.12 mph62%29.77 "HgN/A
5:20 PM88 °FPassing clouds.10 mph62%29.77 "HgN/A
4:50 PM88 °FSunny.12 mph62%29.77 "Hg10 mi
4:20 PM88 °FSunny.13 mph62%29.77 "Hg10 mi
3:50 PM88 °FSunny.13 mph59%29.77 "Hg10 mi
3:20 PM90 °FSunny.13 mph55%29.77 "Hg10 mi
2:50 PM90 °FSunny.14 mph55%29.77 "Hg10 mi
2:20 PM90 °FPassing clouds.13 mph52%29.77 "HgN/A
1:50 PM90 °FPassing clouds.13 mph52%29.80 "HgN/A
1:20 PM90 °FSunny.14 mph52%29.80 "Hg10 mi
12:50 PM90 °FPassing clouds.12 mph52%29.80 "HgN/A
12:20 PM90 °FPassing clouds.10 mph52%29.80 "HgN/A
11:50 AM90 °FPassing clouds.8 mph55%29.80 "HgN/A
11:20 AM88 °FPassing clouds.9 mph55%29.80 "HgN/A
10:50 AM88 °FPassing clouds.8 mph55%29.80 "HgN/A
10:20 AM88 °FPassing clouds.6 mph59%29.83 "HgN/A
9:50 AM84 °FScattered clouds.6 mph66%29.83 "HgN/A
9:20 AM84 °FScattered clouds.7 mph66%29.83 "HgN/A
8:50 AM82 °FScattered clouds.7 mph70%29.83 "HgN/A
8:20 AM81 °FPassing clouds.7 mph74%29.83 "HgN/A
7:50 AM81 °FPassing clouds.7 mph74%29.83 "HgN/A
7:20 AM79 °FScattered clouds.7 mph79%29.83 "HgN/A
6:50 AM77 °FPassing clouds.6 mph79%29.83 "HgN/A
6:20 AM77 °FPassing clouds.5 mph79%29.80 "HgN/A
5:50 AM77 °FPassing clouds.6 mph79%29.80 "HgN/A
5:20 AM77 °FPassing clouds.6 mph79%29.80 "HgN/A
4:50 AM77 °FPassing clouds.6 mph79%29.80 "HgN/A
4:20 AM77 °FPassing clouds.7 mph79%29.80 "HgN/A
3:50 AM77 °FPassing clouds.6 mph79%29.80 "HgN/A
3:20 AM77 °FPassing clouds.5 mph79%29.83 "HgN/A
2:50 AM77 °FPassing clouds.6 mph79%29.83 "HgN/A
2:20 AM79 °FPassing clouds.5 mph74%29.83 "HgN/A
1:50 AM79 °FPassing clouds.5 mph74%29.83 "HgN/A
1:20 AM79 °FPassing clouds.5 mph74%29.83 "HgN/A
12:50 AM79 °FPassing clouds.3 mph79%29.83 "HgN/A
Weather by CustomWeather, © 2014

See weather overviewHow to use our weather pages